Terminal Aerodrome Forecast
Issued by NWS Memphis, TN

Home | Current Version | Previous Version | Text Only | Print | Product List | Glossary On
Versions: 1 2 3 4 5 6 7 8 9 10 11 12 13 14 15
570
FTUS44 KMEG 032122 AAA
TAFMKL
TAF AMD
KMKL 032122Z 0321/0418 07006KT P6SM VCSH BKN070 OVC100
     FM032200 06005KT P6SM -RA SCT015 OVC060
     FM040100 06004KT 5SM -RA BR SCT009 OVC030
     FM040400 08005KT 4SM -RA BR OVC005=

USA.gov is the U.S. government's official web portal to all federal, state and local government web resources and services.